RH
21 17 19 20 28 33 38 41 48 50 49 52 49 50 50 52 58 52 50 64 81 63 50 77 58 61 61 55 47 46 47 40 29 23 27 35 35 45 52 52 51 53 55 64 99
19 16 19 21 28 33 37 40 46 50 50 45 46 47 46 47 66 44 51 53 63 56 77 66 53 57 52 44 41 42 42 36 21 18 31 58 43 49 52 56 62 68 71 91 100
14 16 18 20 26 33 36 38 42 44 44 44 45 44 45 47 64 43 49 49 62 62 79 72 66 64 48 38 36 35 42 22 23 35 41 50 68 43 44 52 54 62 83 99 100
15 17 18 20 23 31 34 37 39 40 40 41 42 43 43 50 43 46 48 51 56 70 73 69 57 57 41 36 30 38 31 29 36 39 41 44 79 52 67 71 67 66 86 100 99
17 18 19 19 23 26 31 34 36 37 36 39 38 41 46 39 41 49 47 55 68 79 67 62 53 52 46 36 32 34 27 28 45 38 40 44 55 51 69 71 73 73 91 100 100
20 20 20 19 20 23 26 28 29 32 35 34 37 38 53 35 45 47 46 49 59 69 69 63 63 60 52 40 38 32 26 25 25 33 34 44 43 67 85 82 79 83 89 99 99
17 17 16 17 17 21 22 21 23 25 31 32 37 37 55 37 43 46 49 49 49 56 67 67 72 67 50 38 45 38 37 27 24 29 30 48 51 58 69 87 88 85 95 98 100
15 14 14 15 16 19 20 19 20 24 30 29 35 36 39 34 39 42 45 47 48 51 60 68 72 65 54 43 38 37 28 29 18 21 28 46 39 39 56 73 91 94 98 99 99
15 16 16 17 18 18 18 17 19 24 28 28 37 41 27 34 37 35 42 42 42 52 57 56 60 48 40 40 38 28 30 22 19 19 24 38 33 64 71 76 82 91 95 99 98
17 17 19 20 19 18 17 17 18 22 23 30 34 42 27 35 38 33 42 37 49 46 46 43 42 40 29 36 51 39 29 24 20 25 28 32 34 36 59 66 80 84 88 93 100
19 19 20 22 20 20 18 19 31 34 34 29 35 39 34 36 29 39 34 42 40 34 38 34 42 44 40 39 39 38 29 29 26 27 28 26 28 24 36 53 57 72 78 71 90
22 19 20 22 22 23 20 27 26 33 39 27 26 30 38 34 43 32 38 36 36 34 32 33 42 38 39 36 34 32 28 29 30 27 25 23 26 21 26 41 45 63 80 76 76
23 22 19 22 23 25 24 26 29 42 47 31 28 34 35 36 39 33 42 38 36 32 36 35 36 34 35 31 34 30 35 36 36 28 25 26 25 20 19 26 40 55 63 66 59
24 24 22 21 26 28 30 28 35 44 34 22 23 35 36 41 38 34 41 46 30 37 39 33 31 36 34 34 36 32 36 37 34 31 31 24 24 18 16 23 26 45 58 67 65
17 21 25 22 25 30 32 36 38 38 88 20 22 22 35 33 32 35 32 41 36 37 37 35 40 45 34 42 38 36 37 38 37 35 31 27 34 17 21 19 19 23 54 65 61
10 13 20 28 25 29 36 43 39 61 94 34 23 28 26 29 27 31 36 39 40 38 31 32 37 43 39 37 37 36 34 31 33 39 50 33 32 29 19 22 18 15 27 61 68
10 9 13 22 31 28 36 43 73 43 20 17 26 26 28 27 26 26 28 27 31 50 43 28 28 32 42 34 35 33 39 51 49 52 41 37 39 25 20 20 23 23 23 40 61
10 9 12 17 31 29 40 38 54 20 16 27 28 24 28 27 23 26 26 22 28 29 28 38 47 30 31 39 44 42 42 47 48 38 32 28 34 27 22 21 22 26 31 36 36
13 11 11 18 34 31 48 45 34 19 22 24 19 21 17 25 27 21 17 24 28 29 28 28 22 28 36 40 42 35 41 37 43 31 40 26 21 16 17 23 26 28 34 34 45
15 12 17 27 38 34 38 43 23 27 30 27 17 22 15 15 20 16 15 23 30 30 28 27 34 28 30 39 42 43 34 39 42 49 45 28 24 29 24 22 24 26 29 36 50
16 28 25 39 40 46 43 29 26 33 34 26 20 21 19 21 24 17 16 24 28 31 30 29 33 20 30 33 29 36 36 38 38 35 42 40 30 20 27 23 24 25 27 30 43
16 25 24 45 41 39 29 30 31 34 42 34 30 25 23 22 20 19 19 21 29 30 25 27 26 35 20 24 32 33 32 32 38 33 32 35 38 17 18 17 23 22 22 25 38
30 29 24 34 29 28 33 33 35 32 32 33 30 30 29 26 23 20 21 27 32 32 25 25 23 30 14 31 31 33 27 33 29 35 38 36 30 17 18 20 20 20 20 20 25
26 31 45 54 50 32 28 26 29 39 32 33 28 31 32 28 24 24 25 23 37 37 40 34 26 26 24 16 17 21 19 20 31 47 35 27 25 20 18 19 19 20 19 21 22
27 26 35 29 42 40 38 34 27 25 38 35 31 31 26 23 24 24 22 23 28 41 42 36 32 26 28 26 30 29 28 26 32 32 40 32 28 22 22 23 23 22 22 24 26
36 36 45 36 43 38 37 24 30 23 27 27 34 20 24 28 19 19 14 14 20 37 37 37 40 29 42 26 21 32 30 26 25 24 28 28 30 21 22 24 25 25 26 28 30
26 28 32 26 31 32 20 23 28 34 24 30 30 30 24 25 24 23 25 23 23 22 21 32 39 34 35 23 22 27 19 18 21 25 27 28 22 23 26 27 28 29 30 29 29
Wind_Speed
4 4 5 6 8 13 12 14 15 16 16 15 14 13 13 11 8 10 11 15 16 19 16 12 10 7 8 10 12 10 11 16 22 25 19 7 15 5 1 6 8 7 3 3 29
4 3 4 4 6 10 12 12 15 15 16 15 15 15 13 14 3 9 17 17 16 16 12 10 9 8 11 8 9 13 12 19 19 22 11 5 16 15 5 9 5 5 7 21 28
4 4 4 3 5 7 11 13 13 16 15 15 14 16 12 13 4 12 19 16 14 13 10 9 8 8 10 9 13 14 18 16 14 6 9 10 22 17 5 10 4 7 14 20 29
4 4 4 4 5 6 9 12 14 14 16 14 13 13 13 11 6 14 16 14 11 11 9 9 8 6 6 7 10 10 16 24 16 5 12 12 20 14 18 6 7 2 16 20 30
5 5 4 4 6 6 8 11 13 14 15 14 13 13 12 6 11 13 15 13 11 10 8 9 10 7 8 4 7 14 16 16 15 12 13 16 15 16 17 13 10 6 14 19 25
7 7 7 5 6 7 8 10 11 14 14 14 12 13 8 9 12 13 14 12 10 9 9 9 8 11 9 8 9 5 12 15 19 10 9 14 13 12 16 13 11 8 9 16 24
9 8 7 6 6 7 8 10 10 12 13 12 13 10 6 9 12 13 13 12 12 10 9 8 10 9 11 7 5 11 9 14 16 15 10 7 10 9 20 14 16 8 7 12 19
9 8 7 6 6 8 9 10 9 10 11 9 12 8 6 14 12 13 13 10 11 10 8 8 8 12 8 9 6 9 9 9 14 15 11 5 12 16 26 23 18 11 6 9 14
10 9 8 8 8 9 10 9 7 8 11 7 9 4 5 11 15 14 14 15 13 8 7 7 5 7 7 9 5 5 6 6 8 8 11 7 6 10 24 17 15 16 13 11 9
9 9 10 10 10 10 10 9 7 6 12 5 9 3 5 14 14 14 14 13 9 11 4 3 4 7 6 9 7 8 3 2 3 3 9 10 11 1 10 27 28 18 10 10 10
10 9 9 9 11 10 10 5 5 3 3 2 5 4 11 17 8 10 18 14 10 6 8 4 8 10 11 10 9 6 5 4 4 3 5 12 12 9 6 13 14 18 18 12 2
11 10 11 11 8 10 8 4 3 3 5 5 7 8 9 13 8 12 17 9 9 8 13 1 10 9 8 7 7 7 4 6 3 5 5 5 12 14 9 10 15 22 23 30 17
9 11 11 11 6 10 8 6 5 6 5 2 4 5 6 9 7 11 16 10 8 10 9 6 8 10 6 7 12 6 10 8 9 10 7 7 12 12 11 12 12 16 19 24 27
10 10 12 11 6 10 7 8 6 5 3 4 1 1 5 6 3 9 10 5 4 8 8 3 7 8 6 6 9 4 8 9 9 8 2 4 4 10 12 13 14 18 22 21 22
10 10 9 9 7 7 9 8 5 2 2 4 1 6 8 4 9 3 10 2 8 9 5 4 7 9 8 7 9 6 9 8 8 9 6 6 4 8 4 8 12 13 20 26 32
12 10 10 8 7 8 9 7 2 2 4 2 2 4 7 2 3 9 4 2 3 4 4 6 2 3 6 10 6 11 9 8 6 5 3 6 3 6 1 3 6 10 18 24 31
12 12 11 9 7 8 9 5 2 2 1 4 2 5 7 5 4 6 5 6 7 7 8 7 1 2 4 10 4 11 10 3 2 1 3 2 5 9 9 8 4 4 4 13 26
13 13 12 10 7 6 7 2 3 1 2 2 3 7 3 6 1 7 6 4 5 7 8 6 3 5 7 4 6 7 6 4 5 7 11 3 4 1 4 5 5 5 5 5 10
14 14 14 9 6 4 2 2 3 1 2 3 5 4 1 1 4 6 4 3 3 6 6 6 5 1 2 3 4 4 2 3 5 8 6 3 6 9 4 3 6 3 3 4 5
14 14 12 6 3 2 2 4 2 1 1 1 4 1 6 7 5 6 4 3 0 1 2 3 6 2 1 3 3 3 5 3 2 5 8 8 11 4 4 2 4 7 7 3 4
11 5 5 3 2 2 3 2 2 2 2 3 3 5 5 4 4 6 4 2 1 1 2 4 2 5 3 3 7 3 2 3 3 4 5 9 5 6 1 4 3 4 10 10 3
6 4 3 2 2 2 2 1 2 3 4 4 3 5 4 2 7 5 5 3 1 2 5 3 5 5 14 2 2 5 6 7 4 5 7 7 13 5 7 8 6 10 11 13 11
4 4 5 5 3 3 1 2 3 3 4 4 4 6 1 3 5 6 5 0 3 3 3 2 3 6 5 2 2 4 4 9 9 7 14 11 7 1 3 4 11 16 19 14 16
4 2 2 4 3 3 3 4 3 3 4 5 3 4 4 6 9 5 5 2 5 6 2 1 6 10 12 15 14 17 18 13 10 9 14 15 24 20 18 19 20 20 19 23 20
4 2 2 1 4 5 1 2 3 4 5 5 3 10 6 5 5 8 7 7 8 4 4 4 9 12 17 17 18 20 22 20 16 20 15 22 20 23 20 19 23 20 19 15 15
4 3 2 3 2 3 3 3 6 6 4 4 7 8 7 9 10 15 17 15 11 6 5 5 9 10 16 18 15 16 20 22 20 21 18 23 24 20 14 13 16 16 17 18 13
9 7 2 2 3 2 3 4 3 2 6 7 6 8 12 14 19 20 19 21 19 15 16 11 6 9 15 14 12 15 11 13 9 9 13 14 15 8 9 10 12 10 10 11 11
Wind_Direction
360 355 2 358 4 8 6 11 18 19 16 12 10 359 352 343 340 7 358 336 330 331 328 313 318 296 284 249 240 244 245 244 237 233 244 183 177 188 72 127 148 176 352 114 166
6 2 355 345 2 10 10 8 16 16 12 9 4 359 354 347 342 356 338 343 340 343 341 323 317 310 275 252 221 235 233 240 245 231 272 42 252 148 172 148 147 148 90 144 158
8 357 337 325 346 357 10 11 10 13 7 7 8 6 356 1 292 355 337 343 340 348 329 315 306 298 281 250 231 229 249 241 262 335 295 289 276 164 178 181 83 186 146 151 161
358 338 324 319 319 331 0 7 7 4 0 359 357 1 3 21 8 339 350 351 348 354 339 323 305 283 275 250 235 245 256 258 300 322 313 278 239 131 129 26 0 236 169 165 168
343 328 331 315 297 313 335 350 356 358 356 355 352 355 15 0 355 341 358 1 358 343 341 337 314 329 297 310 268 235 254 251 232 287 300 297 258 149 136 101 39 103 162 170 174
345 333 323 311 293 305 329 343 352 351 346 347 349 355 350 18 344 337 349 351 331 333 327 326 326 323 290 287 268 346 255 261 257 277 268 291 267 103 136 131 71 91 149 175 182
344 335 326 319 306 307 320 325 337 343 340 343 348 342 320 351 342 339 338 333 338 324 309 317 314 311 320 284 301 273 252 227 244 240 267 259 238 218 173 142 106 94 138 179 186
354 352 355 355 332 323 320 316 328 338 340 334 352 346 318 346 358 348 343 339 329 318 311 307 306 295 271 303 269 261 243 223 223 215 244 239 233 195 177 161 128 130 152 171 189
4 5 6 356 346 330 317 308 310 342 349 328 354 326 8 350 345 351 346 333 336 323 298 321 303 276 275 252 225 214 271 241 148 208 246 227 243 54 157 160 158 125 164 150 180
4 5 359 350 342 337 325 313 279 306 359 347 358 290 351 338 332 348 343 339 325 331 282 310 252 274 10 9 23 344 339 217 208 127 219 244 252 49 181 181 191 164 149 151 173
2 1 353 350 344 348 342 349 331 317 347 25 316 289 314 332 338 344 351 334 331 287 356 4 35 18 354 349 334 330 296 347 43 352 256 230 245 242 230 204 193 193 190 228 241
3 360 353 348 353 357 1 34 22 303 310 286 308 309 317 333 313 345 351 353 338 359 345 346 32 2 335 313 307 321 319 20 129 4 288 204 250 240 213 233 207 187 191 211 211
345 356 354 347 347 359 12 20 355 344 266 275 297 303 317 328 312 326 350 334 340 344 1 360 5 329 330 352 341 52 9 355 341 313 251 285 258 241 234 222 220 223 213 199 217
335 339 349 354 351 349 358 354 354 356 269 41 20 300 325 309 273 312 346 338 334 335 341 8 351 345 343 22 350 353 4 330 319 320 339 337 310 183 221 212 219 209 210 209 215
337 331 335 349 335 348 336 341 345 12 32 7 16 317 323 330 316 352 345 324 334 335 309 32 343 350 1 353 332 349 324 308 312 307 307 190 278 274 116 248 240 224 205 204 209
330 328 327 329 334 335 335 335 357 254 284 39 304 335 335 270 318 316 332 325 266 301 257 315 323 299 330 317 290 310 295 277 281 301 266 41 321 287 228 360 305 250 218 210 208
325 325 320 320 315 329 337 354 302 271 111 350 328 341 337 313 313 348 344 26 22 348 353 339 326 337 316 320 195 340 340 331 344 288 327 101 293 265 301 346 291 300 261 215 212
318 318 314 308 304 323 342 246 258 46 278 70 297 300 282 357 229 320 307 358 81 353 308 333 319 2 3 6 318 332 339 357 320 341 316 220 262 47 99 333 317 281 271 235 217
315 315 306 302 293 314 336 267 277 259 10 317 286 288 241 198 295 326 315 329 26 13 357 342 331 116 6 333 326 3 347 342 293 291 273 256 260 261 228 80 36 28 315 246 218
315 313 293 291 274 290 255 259 283 5 123 267 282 306 314 352 311 329 319 90 108 355 338 22 293 89 11 275 193 277 337 273 209 301 325 300 303 254 217 113 33 34 34 9 212
313 302 277 275 282 245 240 257 309 256 243 269 297 284 268 303 294 311 297 140 218 197 291 319 251 314 250 196 331 218 220 228 304 271 302 308 304 29 291 253 302 348 349 336 277
299 259 268 243 267 245 245 296 314 233 222 242 276 270 266 304 284 283 270 286 190 254 305 43 310 289 293 52 303 275 288 294 287 293 257 276 283 311 341 285 267 284 309 316 293
265 270 264 213 240 228 192 259 251 232 242 213 234 235 250 261 272 247 273 295 220 246 309 108 242 299 309 155 171 244 277 263 291 293 263 274 263 163 297 251 252 268 280 300 295
276 262 251 200 257 279 277 252 242 230 249 247 270 234 226 257 233 275 263 259 208 228 233 204 256 258 281 293 314 296 287 267 255 273 267 262 280 289 296 301 302 292 292 295 294
230 256 227 234 206 242 269 301 243 272 228 220 241 240 233 274 253 241 272 272 216 208 209 239 259 273 277 287 292 285 280 277 255 251 263 278 283 287 303 307 301 298 298 293 292
219 225 286 276 233 227 209 242 262 271 251 223 238 291 257 251 260 291 302 288 271 177 230 222 263 286 284 289 284 291 281 271 266 261 257 262 273 285 299 299 305 298 296 296 288
217 225 187 195 203 207 237 250 332 343 244 275 275 294 276 275 281 285 286 279 268 267 254 235 255 291 276 287 299 289 272 266 247 237 234 266 274 348 297 314 309 309 308 302 299